Regional Weather Roundup
Issued by NWS

Home | Current Version | Previous Version | Text Only | Print | Product List | Glossary On
Versions: 1 2 3 4 5 6 7 8 9 10 11 12 13 14 15 16 17 18 19 20 21 22 23 24 25 26 27 28 29 30 31 32 33 34 35 36 37 38 39 40 41 42 43 44 45 46 47 48 49 50
000
ASUS44 KFWD 050410
RWRTX
NORTH TEXAS HOURLY WEATHER ROUNDUP
NATIONAL WEATHER SERVICE FORT WORTH TX
1100 PM CDT MON MAY 04 2015

NOTE: "FAIR" INDICATES FEW OR NO CLOUDS BELOW 12,000 FEET WITH NO
SIGNIFICANT WEATHER AND/OR OBSTRUCTIONS TO VISIBILITY.

TXZ118-119-050500-
DALLAS/FORT WORTH METROPLEX

CITY           SKY/WX    TMP DP  RH WIND       PRES   REMARKS
DFW AIRPORT    PTCLDY    68  55  63 SE9       30.02R
DALLAS LOVE    MOCLDY    73  56  54 SE13      30.03R
FTW MEACHAM    CLEAR     72  50  45 SE12      30.01S
DAL-EXECUTIVE  PTCLDY    68  55  63 SE8       30.03R
FTW-ALLIANCE   MOCLDY    68  50  52 SE8       30.02R
FTW-NAS-JRB    PTCLDY    74  49  41 SE14      30.02R
FTW-SPINKS     CLEAR     69  51  51 SE9       30.04S
ARLINGTON      CLEAR     72  48  42 SE10      30.02S
GRAND PRAIRIE  PTCLDY    70  54  56 SE5       30.04S
ADDISON        PTCLDY    73  56  56 SE7       30.05R
MESQUITE       PTCLDY    69  56  62 SE9       30.04R
LANCASTER      PTCLDY    63  56  78 CALM      30.04S
$$

TXZ091>094-102>105-117-120-121-131>134-050500-
NORTH CENTRAL TEXAS

CITY           SKY/WX    TMP DP  RH WIND       PRES   REMARKS
SHRMAN/DENISON PTCLDY    71  58  63 SE9       30.04S
GAINESVILLE    PTCLDY    64  56  75 SE7       30.05S
BOWIE          MOCLDY    67  56  66 SE3       30.03R
BRIDGEPORT     CLEAR     69  54  59 SE6       30.04R
DECATUR        PTCLDY    68  50  51 SE9       30.03R
DENTON         PTCLDY    67  54  63 SE6       30.02R
MCKINNEY       CLEAR     70  58  65 SE10      30.03S
GREENVILLE     CLEAR     64  55  72 SE5       30.05S
ROCKWALL       CLEAR     68  58  69 SE8       30.02F
TERRELL        CLEAR     73  57  57 SE8       30.04S
WAXAHACHIE     CLEAR     67  53  61 SE3       30.04S
CLEBURNE       CLEAR     68  55  64 SE10      30.04S
GRANBURY       MOCLDY    70  57  63 SE7       30.03R
$$

TXZ083>090-098>101-113>116-127>130-139>142-154-155-050500-
WESTERN NORTH TEXAS

CITY           SKY/WX    TMP DP  RH WIND       PRES   REMARKS
WICHITA FALLS  CLOUDY    68  59  73 SE10      30.00R
WF-KICKAPOO    CLOUDY    70  60  72 SE7       30.01S
VERNON         CLOUDY    71  55  58 SE13      29.98S
ABILENE        CLOUDY    71  60  68 SE20      29.94F
ABILENE-DYESS  CLOUDY    70  61  74 SE17G23   29.93R
BRECKENRIDGE   CLOUDY    73  57  56 SE13G20   29.97S
GRAHAM         MOCLDY    71  60  68 SE10G17   29.98S
MINERAL WELLS  PTCLDY    68  56  65 SE8       30.00R
STEPHENVILLE   MOCLDY    70  56  62 SE12      30.04S
COMANCHE       MOCLDY    70  60  70 SE15      30.00S
BROWNWOOD      CLOUDY    72  59  64 SE15G22   29.99S
COLEMAN        PTCLDY    72  60  67 SE18G29   29.97F
BRADY          CLEAR     70  59  68 SE12      29.99S
$$

TXZ143>147-156>162-174-175-050500-
CENTRAL TEXAS

CITY           SKY/WX    TMP DP  RH WIND       PRES   REMARKS
WACO           CLEAR     69  56  62 SE12      30.03R
WACO-TSTC      CLEAR     68  57  68 SE7       30.03S
WACO-MCGREGOR  CLEAR     70  54  56 SE12      30.04S
HILLSBORO      CLEAR     67  53  60 SE10      30.03S
CORSICANA      CLEAR     69  54  58 SE7       30.04S
MEXIA          CLEAR     67  55  66 SE16      30.04R
HEARNE         CLEAR     68  56  65 SE6       30.06R
CAMERON        CLEAR     71  56  59 S8        30.05R
TEMPLE         CLEAR     72  52  49 SE18G24   30.03R
KILLEEN        NOT AVBL
KILLEEN-SKYLRK MOCLDY    73  54  49 SE18      30.03S
GATESVILLE       N/A     72  57  60 SE8       30.04S
HAMILTON       PTCLDY    70  57  64 SE15      30.03R
LAMPASAS       MOCLDY    72  61  68 SE9       30.02R
$$

TXZ095>097-106>112-122>126-135>138-148>153-164>167-050500-
EAST TEXAS

CITY           SKY/WX    TMP DP  RH WIND       PRES   REMARKS
PARIS          PTCLDY    66  54  63 MISG      30.07S
SULPHUR SPRNGS PTCLDY    69  58  67 SE7       30.08S
MOUNT PLEASANT CLEAR     65  57  75 SE5       30.09R
GILMER           N/A    N/A N/A N/A MISG        N/A
MINEOLA        PTCLDY    68  59  73 CALM      30.07S
TYLER          PTCLDY    69  58  67 SE6       30.06S
LONGVIEW       CLEAR     67  59  75 SE5       30.07S
MARSHALL       PTCLDY    68  63  82 CALM      30.10S
ATHENS         CLEAR     66  55  68 SE3       30.04S
PALESTINE      CLEAR     70  58  65 SE6       30.06S
JACKSONVILLE   CLEAR     70  55  57 SE7       30.09S
HENDERSON      CLEAR     63  58  84 CALM      30.08F
NACOGDOCHES    CLEAR     63  57  82 SE3       30.08R
LUFKIN         CLEAR     68  58  70 SE3       30.07S
$$

SUPPLEMENTAL OBSERVATIONS (CENTRAL)

CITY           SKY/WX    TMP DP  RH WIND       PRES   REMARKS
MCGREGOR         N/A     70  55  60 S13         N/A
TEMPLE           N/A     70  55  60 SE12        N/A
$$

SUPPLEMENTAL OBSERVATIONS (WEST)

CITY           SKY/WX    TMP DP  RH WIND       PRES   REMARKS
MILLERS CREEK    N/A     72  59  64 SE13        N/A
POSSUM KINGDOM   N/A     72  59  64 SE14        N/A
GRANBURY         N/A     72  55  56 SE9         N/A
HAMBY            N/A     72  57  60 SE9G20      N/A
IVIE RESERVOIR   N/A     72  57  60 SE16G22     N/A
COLORADO BEND    N/A     72  57  60 S13G22      N/A
$$

SUPPLEMENTAL OBSERVATIONS (EAST)

CITY           SKY/WX    TMP DP  RH WIND       PRES   REMARKS
TEXARKANA        N/A     61  59  94 CALM        N/A
LINDEN           N/A     64  59  82 CALM        N/A
LUFKIN           N/A     64  57  77 MISG        N/A
N SABINE NF      N/A     68  63  83 MISG        N/A
$$

SUPPLEMENTAL OBSERVATIONS ARE A COLLECTION OF AUTOMATED INSTRUMENTS
THAT ARE MAINTAINED BY A VARIETY OF FEDERAL AND STATE AGENCIES.
CERTAIN ELEMENTS...SUCH AS HUMIDITY VALUES AND SUSTAINED WIND
SPEEDS...MAY BE APPROXIMATED.




USA.gov is the U.S. government's official web portal to all federal, state and local government web resources and services.